• In Hungary
  • List of Countries
  • For 7 days
  • Water Temperature
  • Satellite Maps
  • Weather Map
  • News
  • Weather Widgets
  • user-avatar
    Login

    Hourly Weather Estelí

    Today, 19 November, Sunday

    Time Temperature Precipitation Wind Pressure Humidity
    00:00 +18°C° 0 mm 1 mps 685 mmHg 81%
    01:00 +18°C° 0 mm 1 mps 685 mmHg 81%
    02:00 +16°C° 0 mm 1 mps 685 mmHg 81%
    03:00 +16°C° 0 mm 1 mps 685 mmHg 81%
    04:00 +16°C° 0 mm 1 mps 685 mmHg 81%
    05:00 +15°C° 0 mm 1 mps 685 mmHg 81%
    06:00 +15°C° 0 mm 1 mps 685 mmHg 82%
    07:00 +19°C° 0 mm 1 mps 686 mmHg 74%
    08:00 +22°C° 0 mm 1 mps 687 mmHg 67%
    09:00 +25°C° 0 mm 1 mps 688 mmHg 59%
    10:00 +26°C° 0 mm 1 mps 687 mmHg 56%
    11:00 +27°C° 0 mm 2 mps 687 mmHg 52%
    12:00 +29°C° 0 mm 2 mps 687 mmHg 49%
    13:00 +28°C° 0 mm 2 mps 686 mmHg 50%
    14:00 +28°C° 0 mm 2 mps 685 mmHg 51%
    15:00 +28°C° 0 mm 2 mps 685 mmHg 52%
    16:00 +26°C° 0 mm 2 mps 685 mmHg 60%
    17:00 +24°C° 0 mm 2 mps 685 mmHg 68%
    18:00 +21°C° 0 mm 2 mps 685 mmHg 76%
    19:00 +21°C° 0 mm 1 mps 685 mmHg 79%
    20:00 +20°C° 0 mm 1 mps 686 mmHg 81%
    21:00 +20°C° 0 mm 1 mps 686 mmHg 84%
    22:00 +19°C° 0 mm 1 mps 686 mmHg 85%
    23:00 +19°C° 0 mm 1 mps 686 mmHg 86%

    Tomorrow, 20 November, Monday

    Time Temperature Precipitation Wind Pressure Humidity
    00:00 +19°C° 0 mm 1 mps 686 mmHg 88%
    01:00 +18°C° 0 mm 1 mps 686 mmHg 89%
    02:00 +18°C° 0 mm 1 mps 685 mmHg 90%
    03:00 +18°C° 0 mm 1 mps 685 mmHg 91%
    04:00 +16°C° 0 mm 1 mps 685 mmHg 92%
    05:00 +16°C° 0 mm 1 mps 685 mmHg 92%
    06:00 +16°C° 0 mm 1 mps 685 mmHg 93%
    07:00 +18°C° 0 mm 2 mps 686 mmHg 83%
    08:00 +21°C° 0 mm 2 mps 687 mmHg 73%
    09:00 +24°C° 0 mm 2 mps 688 mmHg 63%
    10:00 +25°C° 0 mm 2 mps 688 mmHg 58%
    11:00 +27°C° 0 mm 3 mps 687 mmHg 53%
    12:00 +28°C° 0 mm 3 mps 687 mmHg 47%
    13:00 +28°C° 0 mm 3 mps 686 mmHg 49%
    14:00 +28°C° 0 mm 3 mps 685 mmHg 50%
    15:00 +28°C° 0 mm 3 mps 685 mmHg 51%
    16:00 +26°C° 0 mm 2 mps 685 mmHg 58%
    17:00 +24°C° 0 mm 2 mps 685 mmHg 65%
    18:00 +21°C° 0 mm 2 mps 685 mmHg 72%
    19:00 +20°C° 0 mm 2 mps 686 mmHg 75%
    20:00 +20°C° 0 mm 1 mps 686 mmHg 78%
    21:00 +20°C° 0 mm 1 mps 687 mmHg 82%
    22:00 +19°C° 0 mm 1 mps 686 mmHg 83%
    23:00 +19°C° 0 mm 1 mps 686 mmHg 85%

    Day after tomorrow, 21 November, Tuesday

    Time Temperature Precipitation Wind Pressure Humidity
    00:00 +18°C° 0 mm 1 mps 686 mmHg 87%
    01:00 +18°C° 0 mm 1 mps 686 mmHg 88%
    02:00 +18°C° 0 mm 1 mps 685 mmHg 89%
    03:00 +18°C° 0 mm 1 mps 685 mmHg 89%
    04:00 +16°C° 0 mm 1 mps 685 mmHg 90%
    05:00 +16°C° 0 mm 1 mps 685 mmHg 90%
    06:00 +16°C° 0 mm 1 mps 685 mmHg 90%
    07:00 +20°C° 0 mm 1 mps 686 mmHg 80%
    08:00 +22°C° 0 mm 1 mps 687 mmHg 70%
    09:00 +25°C° 0 mm 1 mps 688 mmHg 61%
    10:00 +26°C° 0 mm 1 mps 688 mmHg 56%
    11:00 +27°C° 0 mm 1 mps 688 mmHg 52%
    12:00 +29°C° 0 mm 1 mps 687 mmHg 48%
    13:00 +29°C° 0 mm 1 mps 687 mmHg 50%
    14:00 +28°C° 0 mm 1 mps 686 mmHg 52%
    15:00 +28°C° 0 mm 1 mps 685 mmHg 54%
    16:00 +26°C° 0.1 mm 1 mps 685 mmHg 62%
    17:00 +24°C° 0.1 mm 1 mps 685 mmHg 70%
    18:00 +22°C° 0.1 mm 1 mps 685 mmHg 78%
    19:00 +19°C° 0 mm 0 mps 686 mmHg 81%
    20:00 +19°C° 0 mm 0 mps 686 mmHg 83%
    21:00 +18°C° 0 mm 0 mps 687 mmHg 86%
    22:00 +18°C° 0 mm 0 mps 687 mmHg 87%
    23:00 +18°C° 0 mm 0 mps 686 mmHg 87%

    22 November, Wednesday

    Time Temperature Precipitation Wind Pressure Humidity
    00:00 +17°C° 0 mm 0 mps 686 mmHg 88%
    01:00 +17°C° 0 mm 0 mps 686 mmHg 89%
    02:00 +17°C° 0 mm 0 mps 686 mmHg 89%
    03:00 +19°C° 0 mm 1 mps 685 mmHg 89%
    04:00 +19°C° 0 mm 1 mps 686 mmHg 89%
    05:00 +18°C° 0 mm 1 mps 686 mmHg 90%
    06:00 +18°C° 0 mm 1 mps 686 mmHg 90%
    07:00 +21°C° 0 mm 1 mps 687 mmHg 81%
    08:00 +23°C° 0 mm 1 mps 688 mmHg 73%
    09:00 +26°C° 0 mm 1 mps 689 mmHg 64%
    10:00 +27°C° 0.1 mm 1 mps 688 mmHg 61%
    11:00 +28°C° 0.1 mm 1 mps 688 mmHg 58%
    12:00 +29°C° 0.1 mm 1 mps 687 mmHg 55%
    13:00 +29°C° 0.4 mm 1 mps 687 mmHg 57%
    14:00 +28°C° 0.4 mm 1 mps 686 mmHg 59%
    15:00 +28°C° 0.4 mm 1 mps 685 mmHg 60%
    16:00 +26°C° 0.3 mm 1 mps 685 mmHg 68%
    17:00 +24°C° 0.3 mm 1 mps 685 mmHg 76%
    18:00 +22°C° 0.3 mm 1 mps 686 mmHg 84%
    19:00 +21°C° 0 mm 1 mps 686 mmHg 86%
    20:00 +19°C° 0 mm 0 mps 686 mmHg 88%
    21:00 +18°C° 0 mm 0 mps 687 mmHg 90%
    22:00 +18°C° 0 mm 0 mps 687 mmHg 90%
    23:00 +18°C° 0 mm 0 mps 686 mmHg 91%

    23 November, Thursday

    Time Temperature Precipitation Wind Pressure Humidity
    00:00 +19°C° 0 mm 1 mps 686 mmHg 91%
    01:00 +19°C° 0 mm 1 mps 686 mmHg 91%
    02:00 +19°C° 0 mm 1 mps 685 mmHg 92%
    03:00 +19°C° 0 mm 1 mps 685 mmHg 92%
    04:00 +18°C° 0 mm 1 mps 685 mmHg 92%
    05:00 +18°C° 0 mm 1 mps 685 mmHg 92%
    06:00 +18°C° 0 mm 1 mps 686 mmHg 92%
    07:00 +20°C° 0 mm 1 mps 686 mmHg 83%
    08:00 +23°C° 0 mm 1 mps 687 mmHg 73%
    09:00 +25°C° 0 mm 1 mps 688 mmHg 64%
    10:00 +26°C° 0 mm 1 mps 688 mmHg 59%
    11:00 +27°C° 0 mm 1 mps 687 mmHg 54%
    12:00 +28°C° 0 mm 2 mps 687 mmHg 49%
    13:00 +28°C° 0.1 mm 2 mps 686 mmHg 49%
    14:00 +28°C° 0.1 mm 2 mps 685 mmHg 49%
    15:00 +28°C° 0.1 mm 1 mps 685 mmHg 50%
    16:00 +26°C° 0.1 mm 1 mps 685 mmHg 58%
    17:00 +24°C° 0.1 mm 1 mps 685 mmHg 65%
    18:00 +22°C° 0.1 mm 1 mps 685 mmHg 73%
    19:00 +21°C° 0.1 mm 1 mps 685 mmHg 76%
    20:00 +20°C° 0.1 mm 1 mps 686 mmHg 78%
    21:00 +19°C° 0.1 mm 1 mps 686 mmHg 81%
    22:00 +19°C° 0 mm 1 mps 686 mmHg 82%
    23:00 +19°C° 0 mm 1 mps 686 mmHg 82%

    24 November, Friday

    Time Temperature Precipitation Wind Pressure Humidity
    00:00 +18°C° 0 mm 1 mps 686 mmHg 83%
    01:00 +18°C° 0 mm 1 mps 685 mmHg 84%
    02:00 +16°C° 0 mm 1 mps 685 mmHg 85%
    03:00 +16°C° 0 mm 1 mps 685 mmHg 86%
    04:00 +16°C° 0 mm 1 mps 685 mmHg 86%
    05:00 +15°C° 0 mm 2 mps 685 mmHg 86%
    06:00 +15°C° 0 mm 2 mps 686 mmHg 87%
    07:00 +18°C° 0 mm 2 mps 686 mmHg 77%
    08:00 +20°C° 0 mm 2 mps 687 mmHg 68%
    09:00 +24°C° 0 mm 2 mps 688 mmHg 58%
    10:00 +25°C° 0 mm 2 mps 688 mmHg 53%
    11:00 +26°C° 0 mm 2 mps 687 mmHg 48%
    12:00 +28°C° 0 mm 2 mps 687 mmHg 43%
    13:00 +28°C° 0 mm 2 mps 686 mmHg 44%
    14:00 +28°C° 0 mm 2 mps 686 mmHg 45%
    15:00 +28°C° 0 mm 1 mps 685 mmHg 45%
    16:00 +26°C° 0 mm 1 mps 685 mmHg 53%
    17:00 +23°C° 0 mm 1 mps 685 mmHg 61%
    18:00 +21°C° 0 mm 1 mps 685 mmHg 69%
    19:00 +20°C° 0 mm 1 mps 686 mmHg 72%
    20:00 +20°C° 0 mm 1 mps 686 mmHg 75%
    21:00 +19°C° 0 mm 1 mps 687 mmHg 79%
    22:00 +19°C° 0 mm 1 mps 687 mmHg 80%
    23:00 +18°C° 0 mm 1 mps 686 mmHg 82%
    Show more